Terminal Aerodrome Forecast
Issued by NWS Cleveland, OH

Home | Current Version | Previous Version | Graphics & Text | Print | Product List | Glossary On
Versions: 1 2 3 4 5 6 7 8 9 10 11 12 13 14 15 16 17 18 19 20 21 22 23 24 25
000
FTUS41 KCLE 042000 AAA
TAFTOL
TAF AMD
KTOL 042013Z 0420/0518 24012KT P6SM VCSH SCT050 BKN080
     FM050000 31008KT P6SM SCT025 BKN050 OVC100
     FM050500 01006KT P6SM SCT025 OVC045
      TEMPO 0505/0508 BKN025
     FM050800 05006KT P6SM VCSH OVC025
     FM051200 06006KT 5SM -SHRA OVC025=

USA.gov is the U.S. government's official web portal to all federal, state and local government web resources and services.